GFSSW_sfc_wetblb_210.txt.gz
Wetbulb
57.37 57.65 57.65 57.78 57.87 58.03 57.99 58.21 58.43 58.72 59.06 59.44 59.89 59.74 59.94 60.38 59.21 60.37 55.54 58.60 60.85 65.27 64.62 58.63 58.34 56.97 56.89 54.94 54.98 53.86 49.93 47.76 47.67 48.28 49.66 52.87 51.83 54.35 54.74 53.47 54.35 55.26 55.13 56.54 58.48
57.19 57.57 57.62 57.79 57.85 57.92 57.78 57.96 58.27 58.74 59.27 59.56 59.64 59.53 60.13 60.08 58.11 55.91 62.05 65.49 67.01 66.39 57.46 56.60 55.19 56.02 54.76 54.07 54.97 54.19 52.82 48.13 50.80 51.61 50.93 51.80 52.03 52.37 52.31 52.31 52.84 53.94 56.19 57.46 58.64
56.77 57.07 57.33 57.50 57.75 57.75 57.79 58.02 58.32 58.78 59.44 59.31 59.31 59.88 60.09 61.33 54.86 55.18 65.08 67.28 67.23 65.30 58.45 57.57 56.80 55.31 52.57 53.96 53.15 52.60 49.71 50.75 50.96 51.94 52.34 51.21 51.02 52.68 51.57 50.70 52.29 52.05 54.01 55.83 56.94
56.31 56.64 56.92 57.07 57.41 57.65 57.83 57.92 58.10 58.55 58.80 58.84 59.28 59.86 60.39 59.25 47.36 56.89 66.35 66.54 64.94 61.33 57.61 56.27 55.19 52.77 51.35 50.43 52.81 50.08 51.35 51.61 51.91 52.41 51.89 50.84 51.68 50.33 51.51 52.26 53.43 53.95 54.90 55.34 55.81
55.65 55.90 56.28 56.60 56.90 57.28 57.58 57.57 57.82 57.82 57.74 58.24 59.62 60.20 61.91 54.08 53.60 59.49 66.17 66.21 59.07 58.13 56.15 54.81 53.20 52.60 49.90 50.68 51.62 50.22 50.72 51.65 52.16 51.86 51.90 52.25 50.24 50.59 51.05 53.07 54.18 54.52 55.38 55.26 55.80
54.98 55.18 55.62 56.19 56.53 56.88 57.15 56.93 56.93 57.12 57.49 58.43 59.86 59.88 57.25 49.97 58.75 60.01 59.28 58.51 58.29 57.24 55.91 55.95 53.50 54.17 51.61 50.82 50.71 51.36 50.97 50.89 51.64 51.49 51.80 50.26 50.10 50.86 52.04 53.44 53.64 54.22 54.73 55.54 55.93
55.01 54.81 55.21 55.80 56.25 56.79 56.89 56.61 56.28 56.82 58.16 59.33 60.72 61.68 55.08 53.02 60.49 60.56 59.04 58.10 58.42 57.27 55.63 55.91 55.91 53.24 53.12 50.76 52.98 51.47 49.18 50.27 50.70 50.93 50.23 51.29 48.97 49.13 52.49 53.13 52.79 53.65 54.99 55.34 56.16
55.15 54.78 54.66 55.36 56.01 56.81 57.13 56.85 56.51 57.41 58.64 59.83 60.59 60.11 53.51 60.90 61.81 59.70 59.18 57.52 58.16 57.98 57.24 57.47 57.25 54.91 53.03 53.40 51.15 48.60 49.17 46.19 50.06 50.32 50.18 50.11 45.17 50.12 52.76 52.38 52.11 53.35 53.94 54.50 55.91
55.09 54.74 54.54 54.95 55.74 56.47 56.22 56.00 56.74 57.65 58.69 59.76 60.43 58.69 53.48 61.39 57.15 58.54 58.84 55.51 56.39 56.71 56.72 56.11 56.11 53.09 53.13 50.08 48.39 48.44 44.65 44.91 46.17 50.29 49.49 48.72 46.34 50.32 52.77 52.47 51.85 52.90 53.34 53.54 55.93
54.66 54.41 54.54 54.72 55.38 55.78 55.31 55.88 57.83 58.43 60.71 60.59 58.97 55.83 56.05 54.11 57.60 57.88 58.22 56.71 54.83 55.18 54.55 53.96 54.76 51.57 52.11 49.29 43.43 44.04 44.55 45.64 45.48 48.88 49.34 47.72 47.29 49.71 51.43 50.97 50.95 51.52 52.09 53.04 55.33
53.99 54.13 54.39 54.82 55.17 55.00 56.56 60.43 57.43 55.97 57.38 53.68 53.48 52.85 53.79 56.80 58.80 56.86 57.41 55.97 55.22 53.67 49.87 52.17 49.21 48.07 48.33 49.20 48.80 47.69 46.43 45.50 48.06 49.99 47.39 47.23 47.25 48.91 50.65 50.55 49.87 50.59 51.84 53.87 55.29
53.33 53.68 54.01 54.58 54.70 55.05 59.80 58.06 56.65 57.84 53.90 55.43 54.98 54.51 55.69 56.71 52.88 55.01 56.97 52.71 51.85 49.05 50.29 49.58 47.26 49.79 49.93 49.41 48.11 47.75 46.36 46.14 48.19 48.40 48.07 47.24 46.72 49.10 49.59 49.55 50.11 50.66 51.44 53.97 55.63
53.29 53.19 53.74 54.15 54.23 59.74 59.59 57.75 60.55 59.23 54.91 53.71 55.07 54.75 54.95 56.30 52.44 53.07 55.57 53.09 50.46 48.63 48.74 46.88 48.53 49.72 48.45 48.11 47.00 47.40 45.82 45.80 44.69 47.15 48.54 47.04 44.77 45.84 47.93 49.68 50.63 51.89 53.59 54.66 55.17
53.39 53.46 53.41 53.39 56.50 61.51 58.63 60.63 60.53 60.03 51.26 49.87 51.70 52.14 53.69 54.85 51.59 56.13 55.86 52.60 50.65 47.65 48.27 47.87 49.95 48.04 47.92 47.02 47.41 44.33 47.80 45.98 44.97 44.22 40.30 46.56 37.81 44.48 46.63 47.26 49.63 50.85 52.70 54.49 55.65
53.46 53.35 53.06 51.80 60.86 59.26 59.53 60.93 61.16 60.29 42.57 51.34 50.33 56.10 54.73 51.51 52.65 53.15 56.28 52.71 48.26 48.28 47.91 46.35 47.51 47.27 46.28 46.63 47.77 45.53 47.62 46.35 45.43 43.73 42.95 42.81 39.73 43.95 46.22 45.50 47.80 49.84 52.86 54.61 56.02
53.46 53.29 52.92 59.70 63.60 59.08 60.50 61.39 61.27 51.63 41.35 47.33 50.36 49.61 50.42 51.42 51.21 52.85 52.34 54.51 52.94 49.17 49.42 48.12 50.50 48.72 47.83 48.25 47.87 48.15 46.59 46.59 46.32 43.29 37.56 42.14 40.70 40.75 44.01 45.51 46.92 50.59 52.26 53.80 55.07
52.93 52.83 58.27 60.20 58.55 60.50 61.38 59.41 50.25 44.55 49.05 45.92 46.99 49.51 49.06 47.97 48.62 49.54 48.81 48.65 47.04 43.32 43.93 46.52 46.52 49.12 49.60 46.69 48.37 47.00 45.06 38.40 36.56 37.26 36.97 42.50 39.65 42.39 46.75 48.02 48.88 49.40 51.01 52.98 54.75
51.63 51.45 54.35 59.41 62.41 61.66 60.70 53.97 43.70 45.15 46.00 48.97 48.46 48.48 46.53 48.00 48.06 48.18 47.83 46.30 48.49 46.97 44.21 41.47 39.87 45.66 48.81 46.62 44.22 45.02 43.95 38.07 29.95 33.35 36.41 42.44 37.44 43.25 47.94 49.84 51.18 51.61 52.65 53.34 52.99
50.48 63.23 61.25 59.39 60.88 62.21 56.59 46.74 46.08 46.64 47.95 47.09 48.41 45.78 45.67 46.99 46.88 47.14 47.18 45.33 47.09 47.80 41.96 41.39 41.05 47.67 48.30 48.88 47.43 44.27 40.79 45.59 38.95 39.91 36.46 40.05 43.25 46.87 48.75 48.36 49.55 50.41 51.78 52.42 52.86
63.86 61.73 57.52 59.35 61.51 62.02 54.39 45.01 48.13 49.99 49.70 48.91 44.73 46.23 43.37 45.20 45.04 45.88 45.38 47.54 46.24 48.58 49.88 45.21 38.95 45.41 45.83 48.08 48.53 46.06 47.28 39.42 40.21 30.16 30.36 37.40 38.95 39.68 45.09 45.66 47.71 48.84 49.83 51.69 53.06
62.64 57.51 57.11 59.49 60.94 57.37 50.92 48.42 48.56 50.79 50.66 47.99 46.05 45.15 45.54 44.85 45.48 44.76 44.25 46.89 48.05 47.49 49.06 47.08 43.14 42.00 45.59 43.93 43.19 43.69 42.08 42.81 42.29 40.04 33.06 31.99 37.22 46.55 46.09 47.96 47.65 49.31 50.71 50.40 51.82
59.60 54.15 56.82 59.61 53.80 54.25 49.93 48.45 46.44 49.19 50.60 48.87 49.48 47.75 46.09 45.90 44.56 43.85 43.37 45.59 49.59 48.76 44.43 47.21 43.96 39.18 41.43 46.56 47.53 45.90 43.54 43.59 38.93 35.68 39.10 37.53 37.09 48.44 49.03 47.76 49.38 49.72 50.77 50.63 52.83
54.10 53.12 56.25 58.29 49.25 48.24 48.58 47.70 48.45 47.59 47.50 47.43 46.77 47.82 48.01 45.41 42.52 44.34 45.16 48.30 49.15 47.58 45.38 46.72 41.76 35.57 38.50 43.45 44.97 42.47 43.67 43.38 43.03 42.44 36.37 33.56 36.48 48.32 47.76 47.00 48.81 49.35 48.50 50.95 51.80
53.70 49.30 51.01 52.44 52.26 48.11 46.04 45.43 45.11 48.33 47.14 47.75 46.91 47.50 45.82 44.47 46.34 43.62 44.07 46.09 47.98 48.10 48.53 48.00 43.16 39.81 35.70 39.59 43.10 40.06 41.82 43.37 41.82 36.28 36.85 37.71 39.81 44.11 44.94 45.43 48.02 48.95 48.31 48.65 50.15
50.52 46.79 46.64 45.49 46.64 47.15 47.29 45.93 43.21 42.77 47.09 47.15 45.88 44.86 43.51 41.30 42.35 42.06 43.95 44.68 46.25 48.00 46.93 46.75 40.62 42.71 42.62 42.54 42.20 41.41 41.23 41.74 40.40 40.97 35.50 38.74 38.91 41.38 44.59 46.53 46.40 46.18 46.88 47.46 48.47
49.42 48.26 49.69 48.37 46.42 45.73 44.15 44.61 42.78 42.77 43.86 43.39 44.03 44.86 44.53 41.18 42.16 40.60 43.03 44.06 43.59 46.11 45.08 46.41 39.54 41.73 39.30 42.24 41.89 39.52 41.10 41.42 41.06 40.93 40.36 40.32 39.67 44.60 46.77 48.12 44.86 44.66 46.19 47.16 47.50
51.95 52.01 48.83 42.35 45.16 44.55 45.02 42.94 42.44 44.11 45.29 45.87 44.74 43.13 42.33 44.04 46.33 47.22 47.87 47.34 46.54 44.12 43.34 43.10 41.98 39.67 35.41 40.28 39.52 35.83 39.36 39.80 39.92 41.41 40.71 36.01 41.84 45.66 45.20 43.29 43.52 45.32 47.03 47.12 47.16

GFSSW_sfc_wetblb_216.txt.gz
Wetbulb
58.36 58.48 58.69 58.68 58.92 59.04 59.09 59.18 59.51 59.91 60.41 60.76 60.93 60.67 60.86 61.38 59.94 59.97 55.40 59.80 62.52 65.74 65.69 61.49 59.91 58.26 57.80 55.84 55.37 54.54 47.92 47.16 48.89 48.91 51.45 54.19 52.54 54.92 55.65 54.64 55.80 57.32 57.08 58.24 60.30
57.77 58.03 58.28 58.38 58.57 58.91 58.85 59.13 59.47 60.10 60.40 60.56 60.46 60.47 60.81 61.01 59.50 54.64 63.69 67.95 68.53 69.17 59.89 59.56 56.90 56.71 54.98 55.34 54.94 51.87 48.30 49.78 52.58 52.92 51.47 52.95 52.82 53.77 52.73 53.31 54.01 55.34 57.48 59.23 59.91
57.07 57.62 57.76 57.99 58.44 58.58 58.87 59.06 59.67 60.21 60.24 60.11 60.00 60.30 60.90 61.00 57.73 54.12 64.86 68.94 67.89 66.73 60.39 58.54 57.62 56.37 53.47 54.42 53.34 53.40 50.15 52.73 52.73 53.40 53.60 51.93 52.01 54.08 51.94 51.14 54.13 54.16 55.14 56.74 58.10
56.66 57.15 57.39 57.62 58.05 58.33 58.50 58.77 59.25 59.64 59.98 59.67 59.67 60.32 60.65 59.81 49.55 55.68 67.52 68.75 68.03 64.48 59.61 57.17 56.43 54.02 52.62 51.63 53.07 50.78 52.17 52.64 53.26 53.65 52.27 51.41 53.16 51.94 52.32 52.92 55.71 55.74 56.09 56.19 56.39
56.33 56.53 56.85 57.15 57.69 58.00 58.47 58.68 58.71 58.97 59.21 59.32 59.92 60.77 60.19 55.51 53.33 58.92 69.36 67.92 62.47 59.65 57.44 55.55 54.42 53.66 51.42 51.66 52.22 51.51 52.08 52.56 52.86 52.54 52.33 52.92 51.32 50.85 51.91 54.34 55.95 55.73 55.76 55.54 56.29
56.08 56.12 56.31 56.76 57.28 57.78 58.08 57.94 57.72 58.07 58.57 59.39 60.19 59.74 58.46 52.78 59.00 59.92 60.13 59.94 59.57 59.01 56.87 56.96 54.81 55.00 53.30 52.46 51.60 53.31 51.83 52.09 52.45 52.69 52.85 51.14 51.31 52.02 52.58 54.76 54.59 54.82 54.88 55.35 55.97
56.14 55.87 55.97 56.40 56.97 57.75 57.69 57.47 57.16 58.00 59.25 60.47 61.62 60.14 58.32 55.43 60.21 60.48 60.13 58.92 59.20 58.45 56.76 57.68 57.68 55.36 54.83 52.88 54.55 52.75 49.74 51.56 52.07 52.73 51.66 52.81 49.39 49.80 53.31 54.43 53.97 54.20 55.06 55.47 56.32
55.92 55.83 55.52 56.20 56.66 57.53 57.71 57.46 57.66 58.66 60.12 61.34 62.34 60.46 55.31 59.76 61.66 59.95 60.13 59.11 59.57 59.47 58.06 58.44 58.49 56.69 54.04 55.33 52.91 51.10 51.16 48.19 51.79 52.60 52.63 51.15 45.99 51.40 54.01 53.99 53.30 54.22 54.79 54.94 55.92
55.58 55.57 55.43 55.75 56.34 57.29 57.18 56.97 58.32 60.30 61.45 61.40 60.80 60.17 54.95 61.47 58.23 59.29 59.95 57.29 57.80 58.73 58.80 58.52 57.89 55.10 54.96 51.57 50.03 51.03 46.96 47.60 48.78 52.71 51.37 50.60 47.88 52.29 54.21 53.38 52.94 53.40 53.94 54.01 54.83
55.09 55.18 55.12 55.45 56.03 56.61 56.22 56.80 60.37 59.97 61.70 60.74 60.02 56.83 57.36 54.48 57.99 58.60 59.67 58.33 56.60 56.74 56.53 56.07 55.10 52.21 52.85 50.91 44.05 45.83 46.02 47.38 47.26 50.87 51.47 49.88 49.61 52.18 53.23 52.89 52.63 52.79 53.38 53.96 54.34
54.88 55.10 55.04 55.51 56.06 55.98 57.32 60.21 57.07 57.11 59.50 56.39 55.61 56.59 55.89 58.37 58.80 57.94 58.80 57.35 57.45 56.03 52.02 53.94 50.09 49.17 50.94 51.42 49.85 48.72 47.74 47.11 49.61 52.26 50.78 49.70 49.63 50.67 52.63 52.43 52.12 52.43 53.40 53.98 53.62
54.81 54.88 54.98 55.41 55.69 55.89 58.38 59.82 58.60 60.31 55.52 57.64 56.98 56.00 57.31 57.55 54.18 55.88 58.50 54.75 54.21 50.98 52.98 51.31 48.90 51.74 51.97 51.23 49.29 48.71 47.33 47.55 50.24 51.62 50.88 49.74 48.30 49.88 51.37 52.39 52.96 52.73 52.37 52.60 53.64
54.89 54.99 54.96 55.37 55.38 57.62 60.69 58.44 61.68 61.32 55.78 54.15 54.42 54.48 54.87 56.12 54.11 54.76 56.65 54.76 52.37 50.35 50.90 48.57 50.11 52.23 50.61 49.35 48.21 48.57 47.45 47.49 46.68 49.32 49.90 47.58 46.01 48.54 50.93 52.20 52.27 52.16 52.40 53.26 54.18
54.55 55.08 55.03 54.47 56.41 62.27 59.78 60.58 61.28 62.36 52.53 51.25 52.21 54.93 55.41 55.55 52.73 57.13 57.56 54.53 52.38 49.70 50.45 49.51 52.03 50.38 49.60 48.43 49.04 45.92 50.04 47.79 46.79 45.19 40.74 47.42 39.25 46.53 49.51 50.19 51.21 51.56 52.28 52.90 54.63
53.81 55.22 55.58 51.10 60.95 60.01 61.82 61.16 62.06 61.83 44.34 52.56 52.99 57.85 55.92 52.70 54.49 55.43 57.98 55.35 50.92 51.06 51.04 48.47 49.61 49.40 48.10 48.09 49.65 47.06 48.90 47.18 46.65 44.82 44.71 44.82 42.10 45.71 50.00 47.28 49.35 51.39 52.30 53.44 54.09
53.30 54.42 53.92 60.05 61.87 60.34 60.70 60.70 62.57 50.86 43.53 51.06 53.61 52.05 51.82 53.54 53.75 55.04 55.07 56.78 55.81 52.25 52.52 51.30 53.77 51.70 49.47 50.48 49.65 49.91 48.19 47.72 47.30 45.64 40.49 44.23 43.33 43.26 45.95 47.70 49.35 51.45 52.26 52.49 53.25
52.93 53.42 55.82 62.01 59.62 61.82 61.90 57.28 50.55 45.94 53.91 50.20 50.19 51.85 51.61 51.31 52.04 52.56 51.65 51.05 49.72 46.16 46.51 48.86 49.70 51.75 51.64 48.48 50.21 48.96 45.49 39.22 36.81 37.86 37.15 44.87 42.31 44.26 48.61 49.77 50.72 50.73 51.51 52.94 53.93
51.48 50.78 61.99 62.11 62.80 63.03 60.70 53.64 45.68 50.34 49.90 52.45 51.09 50.77 48.92 51.18 51.20 50.71 49.94 49.14 52.49 49.48 46.05 43.80 42.16 48.74 51.48 48.77 45.91 45.79 44.73 39.31 32.15 33.98 37.47 43.88 38.32 42.41 50.09 51.17 52.40 53.03 54.12 54.33 54.66
50.00 62.95 63.58 62.44 63.02 63.53 57.74 49.36 49.79 50.85 51.77 50.01 50.62 48.37 49.26 50.82 50.16 49.94 50.14 49.29 50.33 50.23 44.39 42.66 42.82 50.03 50.38 50.15 48.53 44.95 42.21 46.76 41.42 41.75 37.43 40.59 44.08 48.13 50.18 49.59 50.49 50.66 51.74 52.68 54.20
61.73 63.34 61.86 61.88 64.03 61.87 56.35 50.15 52.01 53.14 52.29 51.52 47.32 49.97 47.19 48.87 48.56 49.09 48.69 50.80 48.83 50.51 51.43 47.17 40.89 47.73 49.47 49.66 49.29 47.49 48.96 41.66 42.82 32.78 31.07 37.71 39.79 40.92 46.15 47.03 48.50 48.02 49.62 51.54 53.74
62.11 60.24 59.89 61.66 62.26 58.22 53.13 52.47 52.34 53.80 52.94 50.66 49.19 48.60 48.95 48.21 48.94 47.95 47.69 50.30 50.93 49.49 50.87 47.86 45.93 44.12 48.15 45.96 44.75 44.74 43.60 45.09 44.80 41.39 33.90 32.44 36.63 47.29 47.43 48.45 48.71 49.09 50.33 51.19 52.28
61.06 54.64 59.75 60.63 54.98 56.31 52.12 52.81 48.10 52.07 53.13 51.09 51.17 50.59 48.92 49.33 47.45 47.33 47.00 49.46 52.07 50.39 45.77 48.53 45.80 40.63 42.91 47.64 48.81 47.39 44.97 44.94 38.73 35.60 39.98 37.70 37.09 48.82 49.21 49.23 49.39 49.39 50.11 50.45 51.36
57.18 56.43 60.45 59.64 50.84 52.21 53.19 51.17 51.30 50.53 50.86 50.21 49.37 50.55 51.01 47.96 45.35 47.45 48.16 50.94 51.39 48.92 47.06 48.61 44.43 37.56 39.32 44.95 47.82 45.10 45.97 45.85 45.68 43.93 38.46 33.71 36.22 48.56 49.20 47.01 48.19 48.44 49.56 49.75 50.77
56.39 52.21 56.11 57.45 55.88 52.10 50.52 50.25 48.74 51.37 49.24 50.02 49.58 50.46 49.10 48.02 49.68 46.75 47.34 49.71 50.46 49.25 51.85 49.14 43.69 40.43 35.98 40.36 44.22 41.23 43.08 44.10 43.61 37.83 36.85 37.56 38.26 42.49 45.10 45.62 47.27 48.23 49.00 49.05 49.97
57.35 53.64 52.89 51.36 51.69 51.45 51.06 50.37 47.95 47.35 49.94 49.91 48.44 48.79 47.24 44.29 45.63 45.22 47.33 47.81 49.26 52.16 49.80 48.78 41.66 43.99 44.31 44.24 43.82 43.07 42.13 42.29 40.58 41.15 37.07 38.23 38.46 41.73 44.32 45.53 46.75 48.30 47.98 47.22 47.73
52.85 51.35 53.26 53.05 52.15 50.87 46.97 49.91 46.60 47.84 47.41 47.35 46.76 48.54 48.26 45.21 45.63 43.90 46.56 46.67 45.85 49.17 48.53 50.14 42.35 43.88 40.87 43.74 43.61 40.72 42.43 42.77 42.26 41.18 40.02 40.30 39.12 45.86 46.86 47.37 46.75 46.58 46.25 45.99 47.41
54.73 56.60 53.78 50.23 52.03 49.48 48.89 47.58 46.37 47.41 49.48 48.85 47.60 46.58 45.85 47.94 50.12 50.00 49.62 49.18 48.47 46.30 45.84 45.75 43.61 40.93 36.67 42.04 41.39 37.19 39.98 41.45 42.07 43.44 42.06 37.30 41.63 45.09 44.00 44.36 44.80 44.58 45.78 45.94 46.72

GFSSW_sfc_wetblb_219.txt.gz
Wetbulb
58.22 58.60 58.69 58.78 58.97 59.29 59.39 59.69 59.90 60.19 60.55 60.57 60.62 60.40 60.56 61.06 60.14 57.00 50.63 55.31 56.82 65.91 66.06 59.22 58.44 58.03 54.31 51.00 49.40 47.90 40.93 39.69 43.06 44.62 45.06 49.08 46.54 50.21 52.45 51.31 54.42 55.24 54.32 55.66 59.73
57.78 58.01 58.37 58.38 58.81 59.17 59.29 59.43 59.77 60.00 60.09 60.33 60.23 60.05 60.18 60.60 56.46 51.54 60.21 65.39 67.59 68.61 55.85 55.30 54.41 54.97 48.78 49.09 48.22 45.31 41.15 43.30 48.28 47.51 45.11 48.47 48.31 49.72 50.07 50.75 52.42 54.11 56.04 57.90 58.89
57.15 57.52 57.90 57.97 58.43 58.93 59.03 59.26 59.45 59.89 60.14 59.95 59.73 59.88 60.07 59.63 53.16 47.53 65.41 67.31 67.83 67.65 58.46 56.21 55.57 51.11 47.22 48.19 45.91 44.26 43.20 47.74 48.94 50.57 49.09 48.10 48.93 49.36 49.21 46.67 51.15 51.58 52.86 55.78 56.94
56.77 57.11 57.41 57.64 58.01 58.51 58.92 59.09 59.32 59.92 59.88 59.42 59.56 60.02 59.89 57.18 42.52 49.63 65.86 67.72 68.27 64.47 58.26 55.10 52.49 48.05 45.30 43.46 45.91 42.28 47.89 48.78 48.10 49.72 47.90 47.13 49.81 49.05 48.68 47.89 53.19 53.47 54.03 53.84 53.50
56.49 56.79 56.91 57.27 57.91 58.26 58.51 58.76 58.89 59.03 59.03 59.00 59.58 60.39 56.72 50.23 49.21 55.27 68.54 66.94 62.62 58.08 53.85 51.80 48.07 46.93 44.55 45.75 46.25 44.09 47.42 49.13 48.62 47.13 45.92 49.49 48.40 48.40 47.85 51.24 53.45 53.75 54.04 52.93 52.41
56.39 56.44 56.47 56.75 57.51 57.76 57.68 57.70 57.72 57.84 58.52 59.36 60.03 59.82 55.44 49.74 55.20 56.85 57.97 56.69 56.36 54.61 54.25 52.93 49.97 50.91 47.46 46.07 44.65 47.08 47.18 46.87 47.33 47.13 47.40 47.04 48.05 48.51 49.69 51.99 51.89 52.33 51.81 51.06 51.80
56.16 56.10 56.23 56.76 57.14 57.41 57.35 57.25 56.97 57.81 58.84 60.20 61.24 59.42 54.46 52.88 55.80 56.26 56.03 52.68 54.50 55.78 53.41 53.85 53.58 51.10 50.09 47.50 49.22 48.59 43.81 46.85 46.77 47.85 47.31 49.12 46.39 47.31 50.80 51.16 50.43 51.59 51.86 52.35 52.22
55.72 55.82 56.00 56.29 56.88 57.23 57.56 57.37 57.26 58.36 59.97 60.98 62.27 56.60 52.60 55.71 56.39 55.70 56.58 55.93 56.73 55.55 55.01 53.95 54.25 51.61 48.97 49.64 49.58 45.02 43.36 38.82 46.18 48.52 48.92 47.55 40.84 48.33 50.68 49.99 49.58 51.22 51.80 52.84 52.04
55.70 55.55 55.55 55.79 56.66 57.23 56.76 56.51 57.96 59.78 61.22 61.15 55.62 54.49 52.00 58.91 56.17 57.24 55.32 54.86 55.92 56.38 55.65 57.55 52.62 50.59 51.18 45.68 42.53 43.74 38.19 40.92 45.00 48.28 47.80 45.71 42.15 48.46 50.95 50.12 49.28 49.57 50.52 51.57 50.98
55.49 55.36 55.37 55.59 56.28 56.37 55.70 56.17 58.69 57.95 60.59 59.28 57.80 51.20 54.66 52.07 56.62 57.46 56.81 56.81 54.94 54.77 53.93 53.01 49.24 46.42 44.95 43.19 36.44 39.21 40.28 41.86 42.54 46.79 46.65 44.48 44.05 47.53 49.23 49.11 48.75 48.68 49.19 49.87 50.07
55.27 55.43 55.45 55.69 56.03 55.60 55.57 56.05 52.52 52.33 53.56 51.19 53.29 54.98 55.69 56.95 57.65 55.61 57.44 55.69 55.38 52.88 47.54 50.81 44.08 41.73 44.18 46.50 46.20 44.69 42.86 42.24 45.21 48.61 45.72 44.23 44.53 46.72 48.03 47.11 46.96 47.64 48.55 48.99 52.20
55.18 55.65 55.53 55.67 55.68 55.47 52.97 53.28 56.12 54.40 50.53 56.62 55.98 55.37 56.55 56.33 52.72 54.76 57.39 52.47 51.43 46.96 49.30 46.38 42.32 47.93 49.20 48.61 46.57 44.86 42.63 42.23 45.70 48.15 45.60 43.92 44.15 46.35 47.05 47.66 48.38 49.05 48.75 47.64 53.45
54.57 55.43 55.52 55.39 55.29 53.14 54.58 57.59 56.75 55.93 48.97 55.41 55.61 53.17 52.84 53.44 52.07 53.38 55.02 52.34 49.26 47.03 46.80 43.36 46.54 50.54 49.09 46.70 45.84 43.73 42.18 42.08 41.65 44.89 44.87 43.11 40.63 43.08 47.62 48.92 49.49 47.24 47.60 48.62 50.35
53.96 54.94 55.55 55.17 53.58 57.20 56.69 59.95 56.96 59.44 45.85 51.95 49.40 52.28 54.56 52.97 51.47 56.59 57.07 53.27 49.60 46.50 47.80 45.41 49.28 49.17 46.70 46.19 45.28 40.27 46.81 45.52 43.94 40.18 33.79 42.18 34.27 41.57 44.37 46.48 48.16 46.64 46.20 47.30 48.80
53.49 54.57 55.00 53.05 53.98 55.79 56.27 56.24 55.83 57.30 38.37 50.36 51.38 54.80 53.38 50.88 53.30 55.24 57.82 55.33 48.32 48.70 48.05 45.92 47.60 46.61 45.59 46.35 47.23 43.21 47.01 44.48 44.13 39.55 37.50 39.48 34.61 41.40 44.07 44.06 46.64 48.72 49.77 49.56 51.64
53.01 53.86 53.48 56.24 55.57 57.90 57.91 56.56 56.35 45.93 40.29 49.10 51.32 50.14 49.35 51.06 51.85 54.55 54.73 55.34 53.65 49.22 49.65 48.21 51.25 49.11 47.25 49.51 48.90 48.43 44.55 43.30 40.96 37.51 30.11 38.06 36.91 35.17 40.69 43.60 46.48 48.71 49.35 51.62 51.85
52.74 52.99 52.06 59.15 56.38 58.82 58.39 54.03 43.94 40.89 53.65 48.74 48.67 50.12 49.19 49.53 51.07 52.44 50.94 47.90 44.73 41.20 41.54 45.97 46.40 49.29 50.66 45.73 47.46 44.59 37.92 28.49 27.84 27.83 29.39 40.21 36.26 36.12 43.90 46.83 46.76 46.64 48.09 49.82 51.16
51.60 50.76 56.80 60.94 61.41 60.16 57.21 49.11 38.90 49.47 48.26 51.65 50.64 49.79 47.38 49.84 50.42 50.66 48.69 45.30 48.94 46.74 40.71 39.14 37.87 46.04 49.47 45.63 41.02 40.60 36.63 28.95 25.30 25.09 31.43 39.30 32.29 36.85 46.10 47.76 48.49 48.89 49.57 51.23 51.11
50.33 57.61 59.03 62.21 60.74 59.93 53.69 43.49 44.92 48.46 50.45 49.29 49.13 45.68 46.76 49.64 48.98 48.69 46.85 47.12 48.22 47.06 39.47 37.79 40.24 47.71 48.51 48.20 45.14 40.82 35.10 40.97 33.40 35.17 30.18 33.72 38.81 42.82 47.21 47.39 47.09 47.31 48.19 48.99 49.35
55.52 59.79 60.17 59.76 61.15 57.92 51.40 46.92 50.74 52.16 51.55 51.26 45.20 48.49 44.59 46.80 46.41 46.02 46.09 49.51 48.51 49.41 47.46 42.70 34.30 44.87 47.05 48.46 47.39 42.29 44.11 33.21 34.36 27.07 25.44 32.29 34.38 36.01 40.79 42.78 46.49 45.26 45.83 47.45 49.10
57.22 56.97 57.16 58.94 59.69 53.34 47.50 51.26 50.75 52.89 52.52 49.06 46.54 45.86 46.28 46.03 46.38 44.95 46.34 48.86 50.76 48.62 47.68 43.31 37.99 40.33 44.38 41.54 40.06 40.52 36.84 37.29 36.74 36.90 25.44 26.21 30.14 43.19 41.36 41.14 40.97 42.60 44.99 45.42 46.07
55.49 51.59 56.91 58.54 49.92 52.24 47.65 51.68 49.17 51.26 53.19 51.74 50.79 48.97 46.50 46.85 44.82 44.43 44.61 47.64 51.43 49.30 43.10 43.76 39.63 34.73 38.71 44.54 46.10 43.73 41.60 39.27 33.42 31.64 34.97 33.73 32.48 43.96 43.61 44.13 44.02 45.00 45.74 45.42 47.25
51.20 53.73 58.67 57.44 45.83 46.79 50.74 51.43 51.62 50.01 49.80 48.90 48.05 49.34 48.17 44.27 39.26 45.43 46.72 51.33 51.04 48.01 43.43 41.92 35.13 27.79 33.12 39.27 43.79 40.91 42.30 41.09 39.22 35.77 31.08 29.59 30.77 45.59 45.60 42.72 43.98 44.28 43.94 44.77 45.74
52.60 48.90 53.26 54.52 52.65 48.62 47.17 49.81 48.34 51.17 51.04 50.99 48.48 49.30 46.08 44.38 45.16 43.31 44.95 49.38 51.37 50.27 52.90 46.66 37.00 34.30 29.03 35.54 41.37 37.70 40.64 42.09 39.07 31.62 32.35 33.24 36.68 39.81 41.18 41.29 42.81 42.90 43.38 44.08 43.85
54.44 50.18 50.66 45.58 47.78 47.95 47.85 48.48 48.00 47.74 49.31 49.38 46.42 48.03 45.18 39.22 41.97 40.98 44.20 45.93 48.00 52.17 46.44 41.83 35.32 39.16 41.54 42.49 41.99 40.78 41.13 40.59 37.20 38.95 32.05 34.75 35.20 38.34 40.18 40.71 41.92 43.36 43.66 43.92 44.25
48.42 48.03 49.39 47.74 50.98 48.69 45.87 47.50 47.75 46.99 46.03 45.98 44.82 46.26 44.57 39.10 41.13 39.88 42.64 41.61 40.92 44.58 42.10 42.66 35.59 38.76 37.65 42.19 41.39 38.53 41.07 40.34 40.45 39.91 38.30 37.89 37.01 41.90 42.35 42.87 42.67 42.26 42.77 42.74 43.15
51.19 51.57 49.71 48.18 48.65 46.43 45.18 46.28 46.62 46.95 49.08 49.19 46.32 43.72 42.84 44.98 46.28 45.25 44.49 43.83 43.66 40.42 39.54 39.70 37.38 35.81 31.47 39.48 38.37 30.72 38.32 39.10 39.45 41.12 39.84 32.88 37.34 40.98 40.70 41.40 41.32 41.35 42.51 42.01 42.62

GFSSW_sfc_wetblb_222.txt.gz
Wetbulb
58.06 58.22 58.51 58.52 58.94 59.04 59.15 59.21 59.54 59.74 59.97 60.32 60.17 59.96 60.13 60.48 59.72 54.62 50.15 55.53 55.43 66.42 65.41 56.73 55.39 55.19 53.39 50.26 48.65 44.38 38.42 35.69 38.86 42.19 43.83 47.58 46.18 50.38 52.18 51.31 52.18 53.24 53.01 55.02 58.08
57.58 57.86 58.08 58.30 58.69 58.76 58.93 59.02 59.25 59.52 59.75 59.80 59.78 59.63 59.89 59.96 55.22 51.71 59.34 64.20 66.29 67.68 53.40 52.38 51.83 52.68 48.37 46.67 46.16 42.57 37.78 39.03 45.25 44.13 42.41 43.84 46.21 47.76 49.13 49.50 50.18 52.31 54.59 57.00 57.65
57.20 57.33 57.54 57.81 58.18 58.40 58.53 58.67 58.88 59.44 59.55 59.54 59.39 59.45 59.76 58.69 49.15 47.51 64.34 65.60 67.40 65.33 56.80 54.40 53.07 50.55 44.21 44.80 45.46 42.21 40.60 44.69 47.26 47.56 46.28 45.67 46.28 47.41 47.23 45.61 49.73 50.66 52.89 55.20 55.72
56.70 57.14 57.22 57.45 57.81 58.13 58.21 58.65 58.97 59.63 59.50 59.14 59.15 59.71 59.70 54.93 39.90 50.08 66.54 67.54 67.83 62.73 56.11 53.38 50.23 46.64 42.94 41.81 44.78 41.53 45.43 46.54 47.45 47.62 45.99 45.72 47.62 46.99 46.79 47.37 52.15 52.06 52.69 52.01 53.85
56.22 56.44 56.54 56.89 57.29 57.64 57.73 57.89 58.32 58.60 58.50 58.80 59.69 60.09 54.42 48.77 48.84 53.25 68.14 65.26 56.92 57.44 53.31 49.79 47.31 44.76 42.63 44.58 44.37 45.33 44.90 47.26 46.94 45.90 45.16 47.58 46.90 46.37 45.09 50.45 52.15 52.29 52.79 51.59 51.86
55.83 55.97 56.04 56.72 56.89 57.16 57.08 56.87 56.98 57.16 57.88 59.00 59.89 59.95 52.60 46.90 56.17 54.22 54.10 55.28 54.29 51.97 52.09 50.44 46.88 48.46 45.13 44.57 43.06 45.37 45.13 45.92 45.42 44.69 45.86 46.00 46.73 47.68 48.59 50.45 50.66 51.31 50.31 50.11 50.61
55.84 55.88 55.91 56.21 56.68 56.81 56.79 56.58 56.21 56.98 58.47 59.73 60.67 58.96 52.64 51.62 56.31 53.98 52.81 51.46 53.27 53.81 51.71 51.66 50.67 50.01 47.99 46.18 47.63 47.08 44.88 44.94 44.93 44.96 45.18 47.62 45.62 46.49 49.60 50.44 48.64 49.47 49.62 50.75 51.36
55.73 55.61 55.66 56.07 56.40 56.74 57.11 56.70 56.58 57.80 59.63 60.62 61.68 54.74 50.11 57.68 54.35 53.80 53.78 53.69 54.87 54.59 53.36 52.96 52.17 49.17 46.47 47.69 48.03 44.30 41.90 37.88 45.19 46.02 47.11 46.29 40.53 47.22 49.70 48.50 47.68 49.08 50.08 50.97 51.34
55.83 55.29 55.55 55.89 56.27 56.66 56.29 56.03 57.31 59.67 60.54 60.93 53.94 51.90 49.97 58.83 54.51 56.21 53.45 53.02 54.22 54.87 54.21 55.83 50.87 48.24 48.85 43.42 40.97 41.42 36.96 38.44 43.31 45.37 45.86 44.14 41.29 46.72 48.63 48.33 47.46 47.68 48.36 49.81 49.79
55.83 55.25 55.07 55.47 56.01 55.89 55.23 55.75 57.22 57.22 57.78 58.62 56.18 48.56 52.05 50.66 54.90 55.67 55.20 55.10 53.19 53.04 52.46 51.42 47.00 44.37 42.59 41.19 35.79 37.00 37.36 38.88 39.48 44.32 43.70 41.74 42.17 46.91 48.31 47.38 47.34 47.15 47.65 48.49 49.40
55.72 55.31 55.11 55.47 55.64 54.95 52.80 53.38 51.71 51.27 51.27 48.13 50.27 51.18 54.38 55.79 55.71 53.30 55.94 54.27 54.04 50.64 45.07 47.78 42.78 40.07 42.21 43.29 43.72 42.53 40.54 39.63 42.29 45.60 43.38 40.74 41.79 44.05 45.75 44.70 45.14 45.96 46.13 47.06 47.58
55.01 55.78 55.28 55.01 55.04 54.50 51.85 50.37 54.38 51.86 48.11 54.25 53.57 53.57 55.80 54.55 51.21 52.60 55.54 50.78 49.36 44.52 46.53 43.68 39.52 45.80 47.49 46.67 44.98 43.40 40.14 39.25 42.24 44.94 42.36 41.37 40.75 43.06 45.05 45.57 48.15 47.54 47.87 48.55 51.22
54.21 54.86 55.62 55.40 54.64 52.21 50.86 54.74 57.51 53.34 46.88 52.21 54.79 53.31 52.06 52.03 50.88 52.02 53.42 51.06 47.70 45.51 44.94 40.80 44.39 50.15 47.49 44.75 43.34 40.57 40.02 39.53 39.67 42.53 41.98 41.10 38.78 42.17 46.28 47.75 49.59 49.01 49.71 50.05 50.71
53.80 54.11 54.66 54.68 53.05 52.79 53.86 57.78 56.64 55.19 43.30 49.66 51.19 50.84 51.92 51.07 50.00 55.74 55.49 51.79 48.31 44.49 46.23 43.81 48.23 48.36 45.44 44.28 43.16 38.04 44.22 43.94 42.50 38.64 33.02 40.39 30.46 38.84 41.71 44.70 46.85 47.81 48.28 49.40 48.99
53.45 53.99 53.88 53.32 50.65 50.70 55.08 53.05 56.16 54.65 36.88 49.91 48.57 53.89 51.99 49.57 51.68 54.02 57.07 53.19 46.58 46.99 46.15 44.23 45.96 45.14 43.43 44.04 45.72 42.06 45.12 42.19 42.01 37.05 33.48 36.08 32.04 36.11 41.70 41.19 42.98 45.65 48.81 48.39 48.99
53.08 53.41 52.77 54.39 52.00 53.58 55.68 52.38 54.89 44.51 38.21 47.46 49.40 48.36 47.30 48.67 50.67 53.48 52.82 54.00 52.29 47.34 47.03 45.40 48.89 47.22 45.41 47.83 46.99 46.18 42.15 39.73 37.52 33.87 28.50 33.95 34.12 32.44 37.38 40.84 42.78 45.51 48.31 50.01 49.49
52.67 52.96 50.81 56.24 51.99 55.55 55.12 50.94 42.69 39.14 51.22 46.38 46.48 47.81 46.75 47.25 49.04 50.60 49.41 45.85 42.76 39.56 39.12 43.82 44.27 47.13 48.78 43.70 44.73 42.35 35.18 26.20 26.40 25.28 26.50 36.27 34.14 33.78 41.71 43.93 44.44 45.00 47.61 49.88 49.88
51.52 50.78 52.23 57.70 56.19 55.73 53.43 46.56 37.26 47.39 46.24 50.46 48.92 47.42 45.80 48.06 48.53 49.47 46.61 43.31 46.70 44.32 38.66 37.15 36.71 43.95 46.88 43.29 39.06 37.93 35.41 26.53 23.07 22.98 29.80 36.58 30.81 34.96 43.78 45.27 46.41 46.86 47.52 49.17 48.12
50.67 53.04 53.99 57.63 58.35 55.48 50.41 40.75 41.70 45.94 49.26 48.69 48.31 44.67 44.94 48.16 47.26 46.42 45.54 44.76 46.21 44.82 38.10 36.04 38.72 45.59 45.53 46.01 43.85 39.66 33.35 37.93 31.31 31.38 27.89 31.51 35.67 41.08 43.71 43.64 44.54 45.26 46.08 45.57 47.57
49.15 53.53 55.85 59.08 56.13 54.68 48.35 44.03 46.09 51.15 51.47 49.98 42.93 45.98 41.29 44.46 44.23 43.81 43.92 48.02 46.33 48.02 44.92 40.29 33.00 42.75 45.72 46.11 44.66 40.16 41.76 31.26 30.28 24.23 23.97 29.45 32.19 33.39 38.42 39.88 41.51 42.08 43.15 43.95 45.51
53.43 52.85 56.76 55.06 55.07 49.65 44.53 46.91 47.77 51.54 51.92 47.58 44.94 43.72 44.33 43.30 43.62 42.08 44.41 47.41 49.60 47.02 45.68 40.82 35.50 37.41 42.62 39.05 37.12 37.81 35.15 35.34 33.46 32.05 26.44 26.73 28.19 40.19 38.39 39.65 39.51 40.91 43.90 43.88 44.62
48.70 47.52 54.29 54.59 46.02 46.13 43.85 47.93 49.02 50.57 50.98 49.30 48.52 46.66 43.80 43.93 41.94 42.39 43.26 46.51 49.75 47.67 41.48 41.19 36.48 32.00 37.18 42.17 43.28 40.62 36.98 35.75 29.97 28.21 30.93 30.69 28.20 41.00 41.93 41.22 42.78 43.39 43.60 42.96 43.20
44.64 47.69 53.89 53.39 40.97 41.26 46.00 49.71 50.13 48.80 48.06 46.80 46.57 47.49 46.06 42.06 37.30 43.26 44.61 50.02 49.68 46.45 41.36 39.58 30.52 23.62 30.25 35.64 40.71 39.12 41.10 38.98 35.34 31.69 28.34 23.53 27.73 42.19 42.05 41.45 42.24 40.72 41.40 41.45 42.69
47.41 43.90 46.33 48.04 45.49 43.23 42.46 45.70 45.68 49.88 49.24 48.72 46.32 47.00 43.96 41.44 41.99 40.35 42.16 47.87 49.49 49.23 51.99 44.15 34.13 31.40 26.66 32.56 37.33 35.94 39.09 39.61 35.69 31.70 31.91 31.01 35.25 37.88 39.96 41.00 41.72 41.69 41.18 41.12 41.96
46.33 43.47 44.21 39.84 43.86 42.66 42.89 45.09 45.53 45.07 46.56 46.67 43.77 44.21 41.93 36.85 38.47 38.57 42.43 43.21 46.22 51.16 43.93 39.33 33.32 35.97 38.03 40.57 40.59 39.19 38.51 38.73 36.27 36.65 30.25 32.89 34.73 36.95 39.26 39.29 40.29 41.13 41.45 42.12 42.82
41.81 42.05 43.76 43.26 44.82 43.73 41.85 42.31 44.25 45.00 43.67 43.46 41.20 44.33 41.33 37.15 38.93 37.01 39.92 38.46 38.60 41.19 39.40 38.86 33.30 36.13 35.45 40.72 40.56 37.83 39.44 39.03 38.82 38.76 37.18 36.97 35.35 40.44 40.80 40.89 41.08 41.82 42.35 42.48 42.52
44.18 43.47 44.88 43.08 43.46 42.32 41.12 42.59 44.42 44.11 46.03 45.89 43.70 40.85 40.13 42.63 43.57 43.05 42.83 41.90 41.31 38.17 36.85 36.62 35.03 33.10 30.50 38.10 37.11 28.88 37.04 38.04 38.49 39.53 37.67 31.70 36.22 39.10 39.96 40.96 41.32 41.75 42.35 41.91 41.65